Location: Unspecified
(38.7273°N, 77.0677°W)
Time: 06:41:13
(UTC-04:00)

CAS-4B - Pass Details

Date: 23 September 2021
Orbit: 529 x 541 km, 43.0° (Epoch: 19 October)

Event Time Altitude Azimuth Distance (km) Brightness Sun altitude
Exits shadow 04:52:40 62° 89° (E) 595 ? -24.6°
Drops below altitude 10° 04:56:08 10° 70° (ENE) 1,770 ? -23.9°
Sets 04:58:22 0° 69° (ENE) 2,662 ? -23.5°
